Погода Исанбай

Погода Исанбай : погода сейчас, прогноз погоды и архив. Всё, что Вы хотите узнать о погоде Исанбай!

Поиск расширенной информации на нашем сайте:

Другие новости

Новости СМИ2

Главная страница сайта

Новости сайта

03.07.2017

Напоминаем, что на нашем специализированном сайте Метеоцентр.Азия вы можете получить высокодетализированные автоматические прогнозы погоды по пунктам России, СНГ и мира в авиационном формате (включающие направление и скорость ветра, видимость, явления погоды, количество и форму облачности, нижнюю и верхнюю границу облачности).


Погода Исанбай - сегодня

Время (UTC), дата Ветер
(°,м/с) 
Видим.   Явления Облачность Т
(°С)
Тd
(°С)
f(%) Тe
(°С)
Pmin
(гПа)
dP
(гПа)
Po
(мм)
O2
(г/м3)
Тmin Tmax R s Состояние
почвы
21 14.02.18 050 (СВ) н/о  {ливн. осадки}  10/10 600 м кучево-дожд. 
[Cb cap]
+7.7 +7 95 +8  1018.8  1.4  714  279           
00 15.02.18 180 (Ю) н/о  слаб. ливневой дождь  10/10 600 м кучево-дожд. 
[Cb cap]
+8.6 +8.2 97 +7  1019.1  0.5  714  278           
06 15.02.18 230 (ЮЗ) 11  10 км  {ливн. осадки}  10/10 300 м кучево-дожд. 
[Cb cap]
+3.6 +2.9 95 -1  1031.3  7.3  722  287           
09 15.02.18 230 (ЮЗ) 10 км    10/10 300 м кучево-дожд. 
[Cb cap]
+3.5 +3 97 +1  1033.2  1.8  723  287           
12 15.02.18 270 (З) 20000 м    10/10 300 м кучево-дожд. 
[Cb cap]
+4 +3.5 97 +4  1033.7  0.6  724  287           
15 15.02.18 230 (ЮЗ) н/о    10/10 600 м кучево-дожд. 
[Cb cap]
+4.2 +3.2 93 +5  1035  1.3  725  287    +7.4       
18 15.02.18 050 (СВ) н/о    8/4 600 м кучево-дожд., верхняя 
[Cb cap|Ci sp]
+4 +3.3 95 +4  1034.6  -0.4  725  287           
21 15.02.18 050 (СВ) н/о    4/0 верхняя 
[Ci sp]
+3.1 +2.1 93 +2  1034.1  -0.7  724  288           
00 16.02.18 050 (СВ) н/о    ясно 
+1.3 +1 98 1034.2  -0.4  724  290           
06 16.02.18 020 (С) 20000 м    8/4 1000 м кучево-дожд., верхняя 
[Cb cap|Ci sp]
+3.3 +2.3 93 +1  1033.8  0.4  724  288           
09 16.02.18 200 (Ю) 20000 м    3/3 1000 м 
[Cu med, cong]
+9.3 +5.8 79 +9  1031.1  -1  723  281           
12 16.02.18 200 (Ю) 20000 м    3/3 1000 м 
[Cu med, cong]
+11.3 +2.9 56 +11  1029.9  -0.8  722  279           
15 16.02.18 160 (Ю) н/о    ясно 
+7.4 +5.1 85 +8  1031.7  0.9  723  283    +11.5       
18 16.02.18 тихо ()   н/о    ясно 
+5.2 +3.8 91 +5  1032.2  -0.1  723  285           
21 16.02.18 тихо ()   н/о    10/6 1000 м кучево-дожд., верхняя 
[Cb cap|Ci sp]
+5.8 +4.4 91 +6  1032.1  723  284           
00 17.02.18 360 (С) н/о    10/5 1000 м кучево-дожд., верхняя 
[Cb cap|Ci sp]
+5.7 +4.5 92 +5  1031.8  -0.3  723  284           
03 17.02.18 020 (С) 20000 м    4/3 1000 м верхняя 
[Sc|Ci sp]
+5.4 +4.5 94 +3  1031.8  -0.1  723  285  +4.9         
06 17.02.18 050 (СВ) 20000 м    3/3 1000 м 
[Cu med, cong]
+9.3 +4.8 73 +10  1030.9  0.2  723  281           
09 17.02.18 250 (З) 20000 м    5/3 1000 м верхняя 
[Sc|Ci sp]
+11.8 +4.3 60 +12  1027.1  -3.1  721  278           
12 17.02.18 270 (З) 20000 м    3/3 1000 м 
[Sc]
+13.1 +3 50 +14  1024.8  -1.8  719  276           
15 17.02.18 230 (ЮЗ) н/о    ясно 
+8.9 +5.1 77 +9  1024.6  -1.1  718  279    +13.7       
18 17.02.18 050 (СВ) н/о    ясно 
+6.2 +4.3 88 +7  1025.3  -0.1  718  282           
21 17.02.18 тихо ()   н/о    ясно 
+4 +3.3 95 +4  1026.2  0.5  719  285           
00 18.02.18 050 (СВ) н/о    10/0 верхняя 
[Ci sp]
+4.9 +4 94 +5  1022  -3.8  716  283           
03 18.02.18 020 (С) 20000 м    10/0 средняя, верхняя 
[Ac trans|Ci sp]
+3.3 +2.6 95 +1  1023.8  1.2  717  285  +3.2         
Время (UTC), дата Ветер
(°,м/с) 
Видим.   Явления Облачность Т
(°С)
Тd
(°С)
f(%) Тe
(°С)
Pmin
(гПа)
dP
(гПа)
Po
(мм)
O2
(г/м3)
Тmin Tmax R s Состояние
почвы

Для получения пояснительной информации подведите курсор к названию столбца.

ПОГОДА Исанбай - архив

Всё, что Вы хотите узнать о погоде Исанбай - удобно и подробно!

Выберите нужную дату (начиная с 1 января 2015* года) и нажмите кнопку "Найти".
Будут отображены архивные сводки погоды по пункту Исанбай, начиная с указанной даты.


Отображать данные в формате CSV (для использования в таблицах Excel)


Внимание! Наш архив погоды предназначен исключительно для личного некоммерческого использования в познавательных целях. Если Вам необходимы официальные справки о состоянии погоды (для производственных, юридических, коммерческих и т.п. целей), обращайтесь в органы Росгидромета.

*Примечание: данная дата относится к архиву по метеостанциям СССР (Россия, СНГ, Балтия).
Архив по метеостанциям Зарубежной Европы и Азии (кроме Китая) хранится 10 дней, по другим регионам земного шара (Китай, Африка, Америка, Австралия, Океания) - 1 день.

Исанбай - район местоположения метеостанции


Название, широта, долгота, высота метеостанции:
Исанбай 38°ш. 68.4°д. 565 м над ур. моря [Таджикистан]

Дополнительная информация

В oтличие oт бoльшинства пoгoдных сайтoв мы публикуем пoдрoбную метеoинфoрмацию в детальнoм прoфессиoнальнoм фoрмате.

Характеристики температуры и влажнoсти вoздуха измеряются на высoте 2 м в тени вдали oт зданий и деревьев.
Скoрoсть ветра измеряется на высoте 10 м (на урoвне рoста челoвека скoрoсть ветра ниже в 1.5-2 раза). Если метеoстанция нахoдится в гoрoде или в лесу, тo скoрoсть ветра занижена на 2-4 м/с пo сравнению с oткрытым местoм. Скoрoсть ветра над акватoриями крупных рек и oзёр, а также на вершинах хoлмoв на 2-5 м/с выше, чем в oбычных услoвиях.
Атмoсфернoе давление в разных тoчках местнoсти мoжет значительнo oтличаться oт давления на метеoстанции, в зависимoсти oт услoвий рельефа (при пoдъёме на 10 м давление пoнижается примернo на 1 мм рт.ст.).